[[{"header":{"parameterUnit":"m.s-1","parameterCategory":2,"la1":30.2992,"la2":30.254,"lo1":-89.0895,"lo2":-89.0443,"dy":0.0025,"dx":0.0025,"nx":19,"ny":19,"refTime":"2026-03-17T21:00:00:Z","depth":"0","parameterNumber":2,"parameterNumberName":"U-component_of_CURRENTS"},"data":[0,0,0,0.0751,0.075,0.0663,0.0662,0.0467,0.0465,0,0,0,0,0,0,0,0,0,0,0,0.0785,0.0785,0.0751,0.075,0.0663,0.0662,0.0467,0.0465,0,0,0,0,0,0,0,0,0,0,0,0.0785,0.0785,0.0785,0.075,0.0663,0.0662,0.0467,0.0548,0,0,0,0,0,0,0,0,0,0,0.0641,0.0705,0.0785,0.0785,0.0749,0.0663,0.0662,0.0553,0.0543,0.049,0,0.0497,0,0.0482,0.0452,0.0451,0,0,0,0.0727,0.0713,0.0682,0.0785,0.0749,0.0663,0.0695,0.0548,0.0537,0.0476,0.0494,0.0487,0.0479,0.0451,0.045,0.041,0.0411,0,0,0.0731,0.0767,0.069,0.0676,0.075,0.0698,0.0693,0.0542,0.0544,0.0493,0.0483,0.0476,0.045,0.0448,0.0409,0.041,0,0,0,0.0761,0.0771,0.0744,0.0683,0.0678,0.0696,0.069,0.055,0.054,0.048,0.0474,0.0449,0.0446,0.0408,0.0409,0.0469,0,0,0,0.0763,0.0789,0.0747,0.0766,0.0682,0.0628,0.0702,0.0551,0.0533,0.0475,0.0448,0.0444,0.0407,0.0409,0.0465,0.0472,0,0,0,0.0785,0.0791,0.0788,0.0769,0.074,0.063,0.0611,0.0547,0.0529,0.0451,0.0444,0.0406,0.0408,0.0462,0.0466,0.0467,0,0,0,0.0813,0.0828,0.0789,0.0798,0.0741,0.0698,0.0612,0.057,0.0516,0.0448,0.0407,0.0409,0.046,0.0463,0.0464,0.0444,0.0454,0,0,0.0845,0.0833,0.0835,0.0798,0.0776,0.0707,0.0685,0.0582,0.0533,0.0443,0.0442,0.0467,0.0466,0.0466,0.0582,0.0587,0,0,0,0.0853,0.0856,0.0842,0.0822,0.0775,0.073,0.0648,0.0624,0.0573,0.0516,0.0498,0.0496,0.0494,0.0478,0.0484,0.0415,0.042,0.042,0.042,0.0942,0.09,0.0895,0.0842,0.0815,0.0747,0.0716,0.0673,0.0612,0.0635,0.057,0.0643,0.0632,0.0634,0.0566,0.0608,0.0609,0.0609,0.0609,0.0983,0.0967,0.0927,0.0904,0.0851,0.0823,0.0761,0.0736,0.0696,0.0668,0.0663,0.0574,0.0643,0.0568,0.0613,0.0613,0.0612,0.0612,0.0611,0.1026,0.1006,0.0994,0.0955,0.0922,0.0858,0.082,0.0779,0.0746,0.074,0.0686,0.0684,0.0591,0.0729,0.0729,0.0729,0.0729,0.0729,0.073,0.1062,0.1043,0.1028,0.0993,0.0965,0.0923,0.0848,0.0816,0.0769,0.0741,0.074,0.0621,0.0678,0.0642,0.0731,0.073,0.073,0.073,0.073,0.1066,0.107,0.1045,0.1026,0.0967,0.0938,0.0884,0.0816,0.0783,0.0765,0.0654,0.0733,0.0697,0.0693,0.0657,0.0744,0.0744,0.0744,0.0744,0.1074,0.1072,0.1033,0.0999,0.0967,0.0933,0.0878,0.0814,0.0712,0.0658,0.0623,0.0598,0.0601,0.0557,0.0555,0.0516,0.0565,0.0565,0.0564,0.1062,0.1055,0.102,0.0989,0.0954,0.0928,0.0872,0.0762,0.0624,0.055,0.0534,0.0542,0.0498,0.0507,0.0431,0.0434,0.0367,0,0]},{"header":{"parameterUnit":"m.s-1","parameterCategory":2,"la1":30.2992,"la2":30.254,"lo1":-89.0895,"lo2":-89.0443,"dy":0.0025,"dx":0.0025,"nx":19,"ny":19,"refTime":"2026-03-17T21:00:00:Z","depth":"0","parameterNumber":3,"parameterNumberName":"V-component_of_CURRENTS"},"data":[0,0,0,-0.1023,-0.1021,-0.0827,-0.0826,-0.0543,-0.0541,0,0,0,0,0,0,0,0,0,0,0,-0.1089,-0.1089,-0.1024,-0.1021,-0.0828,-0.0826,-0.0544,-0.0541,0,0,0,0,0,0,0,0,0,0,0,-0.1089,-0.1089,-0.1089,-0.102,-0.0828,-0.0826,-0.0544,-0.0688,0,0,0,0,0,0,0,0,0,0,-0.0875,-0.0951,-0.1089,-0.1089,-0.1019,-0.0828,-0.0826,-0.0694,-0.0679,-0.0635,0,-0.0635,0,-0.0602,-0.0526,-0.0525,0,0,0,-0.0974,-0.0964,-0.0929,-0.1089,-0.1018,-0.0829,-0.0901,-0.0685,-0.0668,-0.0615,-0.0631,-0.0621,-0.0597,-0.0524,-0.0523,-0.0388,-0.0388,0,0,-0.0985,-0.1025,-0.0941,-0.0919,-0.1006,-0.0908,-0.0896,-0.0675,-0.0662,-0.063,-0.0614,-0.0593,-0.0523,-0.0521,-0.0387,-0.0388,0,0,0,-0.1047,-0.1033,-0.1002,-0.093,-0.0909,-0.0904,-0.089,-0.0671,-0.0667,-0.0611,-0.0589,-0.0521,-0.0519,-0.0387,-0.0387,-0.0428,0,0,0,-0.1051,-0.1073,-0.1008,-0.1025,-0.0915,-0.0792,-0.0891,-0.0681,-0.0656,-0.0591,-0.0521,-0.0516,-0.0387,-0.0387,-0.0426,-0.0433,0,0,0,-0.1091,-0.1076,-0.107,-0.1029,-0.0968,-0.0795,-0.0774,-0.0674,-0.0644,-0.0525,-0.0516,-0.0387,-0.0387,-0.0425,-0.0431,-0.0395,0,0,0,-0.1114,-0.1108,-0.1071,-0.105,-0.0971,-0.0869,-0.0775,-0.0684,-0.0593,-0.052,-0.0387,-0.0387,-0.0425,-0.0429,-0.0395,-0.0441,-0.0447,0,0,-0.1117,-0.1109,-0.1095,-0.1059,-0.0991,-0.089,-0.0794,-0.0652,-0.0584,-0.0448,-0.0444,-0.0427,-0.043,-0.0395,-0.0475,-0.048,0,0,0,-0.1102,-0.1093,-0.1066,-0.102,-0.0944,-0.0844,-0.0719,-0.0655,-0.0534,-0.0541,-0.0428,-0.0428,-0.0404,-0.0431,-0.0436,-0.0283,-0.039,-0.039,-0.039,-0.1147,-0.1103,-0.1064,-0.0997,-0.0933,-0.0806,-0.0718,-0.0608,-0.055,-0.0525,-0.0462,-0.0465,-0.0497,-0.05,-0.0343,-0.0469,-0.0469,-0.0469,-0.047,-0.1152,-0.113,-0.1064,-0.1012,-0.0924,-0.084,-0.0685,-0.0635,-0.0507,-0.049,-0.0465,-0.0476,-0.0507,-0.0337,-0.0472,-0.0472,-0.0471,-0.0471,-0.0471,-0.1186,-0.1166,-0.1134,-0.1059,-0.0971,-0.0856,-0.0751,-0.0645,-0.0542,-0.0509,-0.0501,-0.05,-0.0345,-0.0491,-0.0491,-0.0491,-0.0491,-0.0491,-0.0491,-0.1243,-0.1201,-0.1173,-0.1092,-0.1042,-0.0949,-0.0782,-0.0703,-0.0598,-0.0536,-0.0535,-0.0334,-0.047,-0.0462,-0.0489,-0.049,-0.049,-0.049,-0.049,-0.1268,-0.1265,-0.1222,-0.1182,-0.1068,-0.1005,-0.0872,-0.0745,-0.065,-0.0614,-0.0367,-0.0532,-0.0509,-0.0507,-0.0499,-0.0534,-0.0534,-0.0534,-0.0534,-0.1305,-0.1292,-0.1245,-0.1184,-0.111,-0.1017,-0.0941,-0.0826,-0.0566,-0.0422,-0.0296,-0.0296,-0.0301,-0.0264,-0.0267,-0.0253,-0.0224,-0.0223,-0.0222,-0.1318,-0.1302,-0.1271,-0.1203,-0.1116,-0.1047,-0.0982,-0.0857,-0.0487,-0.0189,-0.0066,-0.008,-0.0059,-0.0079,-0.0007,-0.0023,0.0003,0,0]}],[{"header":{"parameterUnit":"m.s-1","parameterCategory":2,"la1":30.2992,"la2":30.254,"lo1":-89.0895,"lo2":-89.0443,"dy":0.0025,"dx":0.0025,"nx":19,"ny":19,"refTime":"2026-03-17T21:00:00:Z","depth":"2","parameterNumber":2,"parameterNumberName":"U-component_of_CURRENTS"},"data":[0,0,0,-0.0996,-0.0997,-0.1,-0.1,-0.0939,-0.0938,0,0,0,0,0,0,0,0,0,0,0,-0.0983,-0.0983,-0.0996,-0.0997,-0.1,-0.1,-0.0939,-0.0938,0,0,0,0,0,0,0,0,0,0,0,-0.0983,-0.0983,-0.0983,-0.0997,-0.1,-0.1,-0.0939,-0.095,0,0,0,0,0,0,0,0,0,0,-0.0954,-0.0948,-0.0983,-0.0983,-0.0997,-0.1,-0.1,-0.0951,-0.095,-0.0923,0,-0.0923,0,-0.0938,-0.0934,-0.0934,0,0,0,-0.0986,-0.095,-0.0962,-0.0983,-0.0997,-0.1,-0.0995,-0.0951,-0.0949,-0.092,-0.0922,-0.0921,-0.0937,-0.0933,-0.0933,-0.0867,-0.0867,0,0,-0.0986,-0.0971,-0.0963,-0.096,-0.0996,-0.0995,-0.0996,-0.095,-0.0939,-0.0922,-0.092,-0.0936,-0.0933,-0.0933,-0.0867,-0.0867,0,0,0,-0.0993,-0.0971,-0.0985,-0.0962,-0.0973,-0.0996,-0.0996,-0.0941,-0.0948,-0.092,-0.0935,-0.0933,-0.0932,-0.0867,-0.0867,-0.0815,0,0,0,-0.0992,-0.0976,-0.0984,-0.0974,-0.0974,-0.0965,-0.0987,-0.0951,-0.0947,-0.0935,-0.0933,-0.0931,-0.0868,-0.0867,-0.0817,-0.0788,0,0,0,-0.0983,-0.0975,-0.0978,-0.0974,-0.0983,-0.0966,-0.0971,-0.0951,-0.0957,-0.0934,-0.0931,-0.0868,-0.0867,-0.0819,-0.0791,-0.0784,0,0,0,-0.0965,-0.0953,-0.0977,-0.0959,-0.0983,-0.097,-0.0971,-0.0961,-0.0942,-0.0932,-0.0868,-0.0867,-0.0819,-0.0794,-0.0786,-0.0891,-0.0891,0,0,-0.0941,-0.0949,-0.0939,-0.0961,-0.0932,-0.0969,-0.0923,-0.0909,-0.0922,-0.0876,-0.0875,-0.0816,-0.0792,-0.0784,-0.086,-0.0862,0,0,0,-0.0925,-0.091,-0.0908,-0.0895,-0.0904,-0.0881,-0.0886,-0.0884,-0.0857,-0.0912,-0.082,-0.0807,-0.0803,-0.0871,-0.0872,-0.0865,-0.0865,-0.0865,-0.0865,-0.0863,-0.0865,-0.0829,-0.0823,-0.0813,-0.0817,-0.0797,-0.0793,-0.0816,-0.0804,-0.0767,-0.0729,-0.08,-0.0802,-0.0775,-0.0774,-0.0774,-0.0774,-0.0774,-0.0801,-0.0773,-0.0762,-0.0729,-0.0718,-0.0688,-0.0686,-0.0704,-0.0684,-0.0717,-0.0717,-0.0816,-0.08,-0.077,-0.0771,-0.0771,-0.0772,-0.0772,-0.0772,-0.0746,-0.0732,-0.0712,-0.0662,-0.062,-0.0621,-0.061,-0.0619,-0.0634,-0.0624,-0.0737,-0.074,-0.07,-0.0644,-0.0644,-0.0644,-0.0644,-0.0644,-0.0644,-0.0703,-0.0682,-0.0648,-0.0602,-0.0577,-0.0562,-0.0577,-0.0609,-0.0671,-0.0687,-0.0689,-0.0685,-0.069,-0.0693,-0.0641,-0.0641,-0.0642,-0.0642,-0.0642,-0.0641,-0.0648,-0.0602,-0.0575,-0.053,-0.0532,-0.0568,-0.0694,-0.0717,-0.0778,-0.0732,-0.0731,-0.0761,-0.0763,-0.077,-0.0739,-0.0739,-0.074,-0.074,-0.0613,-0.061,-0.0572,-0.0542,-0.0513,-0.052,-0.063,-0.0772,-0.0851,-0.0857,-0.0852,-0.0905,-0.0899,-0.094,-0.0938,-0.0949,-0.0965,-0.0966,-0.0966,-0.0581,-0.0581,-0.0554,-0.0534,-0.0506,-0.0527,-0.0646,-0.0812,-0.094,-0.0971,-0.0849,-0.0763,-0.083,-0.0825,-0.0881,-0.088,-0.0895,0,0]},{"header":{"parameterUnit":"m.s-1","parameterCategory":2,"la1":30.2992,"la2":30.254,"lo1":-89.0895,"lo2":-89.0443,"dy":0.0025,"dx":0.0025,"nx":19,"ny":19,"refTime":"2026-03-17T21:00:00:Z","depth":"2","parameterNumber":3,"parameterNumberName":"V-component_of_CURRENTS"},"data":[0,0,0,0.0522,0.0522,0.0479,0.0479,0.032,0.0318,0,0,0,0,0,0,0,0,0,0,0,0.0522,0.0522,0.0522,0.0522,0.048,0.0479,0.032,0.0318,0,0,0,0,0,0,0,0,0,0,0,0.0522,0.0522,0.0521,0.0522,0.048,0.0479,0.032,0.0375,0,0,0,0,0,0,0,0,0,0,0.0428,0.0443,0.0522,0.0521,0.0522,0.048,0.0479,0.0379,0.0371,0.0313,0,0.0306,0,0.0318,0.0306,0.0306,0,0,0,0.0508,0.0449,0.0447,0.0521,0.0521,0.048,0.0495,0.0375,0.0367,0.0303,0.0304,0.0299,0.0315,0.0305,0.0304,0.0219,0.0219,0,0,0.051,0.0501,0.0453,0.0442,0.0507,0.0496,0.0493,0.0371,0.0353,0.0304,0.0296,0.0312,0.0304,0.0303,0.0218,0.0219,0,0,0,0.0526,0.0503,0.0505,0.0447,0.0453,0.0495,0.0492,0.0358,0.0362,0.0295,0.0311,0.0303,0.0301,0.0218,0.0219,0.0256,0,0,0,0.0527,0.0514,0.0506,0.0499,0.0456,0.0419,0.0481,0.037,0.0357,0.0311,0.0303,0.0299,0.0218,0.0218,0.0255,0.0267,0,0,0,0.0525,0.0514,0.0511,0.0499,0.049,0.0422,0.0418,0.0368,0.0367,0.0305,0.0299,0.0217,0.0218,0.0253,0.0264,0.025,0,0,0,0.0515,0.0501,0.051,0.0489,0.0491,0.0474,0.042,0.038,0.0332,0.0302,0.0218,0.0219,0.0252,0.0262,0.0249,0.0302,0.0311,0,0,0.0496,0.0498,0.0487,0.0495,0.0481,0.048,0.0456,0.0366,0.0328,0.0246,0.0245,0.0255,0.0264,0.025,0.0354,0.0362,0,0,0,0.0481,0.0477,0.0471,0.0463,0.0457,0.0454,0.04,0.0385,0.033,0.0307,0.0263,0.0267,0.0257,0.0287,0.0294,0.0223,0.0223,0.0223,0.0223,0.0458,0.0459,0.0451,0.0452,0.0439,0.0426,0.042,0.0392,0.0339,0.034,0.0305,0.0329,0.0364,0.0369,0.0313,0.0314,0.0314,0.0314,0.0314,0.0462,0.0467,0.0457,0.0451,0.0446,0.0429,0.0419,0.0404,0.0376,0.0356,0.0343,0.0334,0.0378,0.0317,0.0317,0.0316,0.0316,0.0315,0.0315,0.0474,0.0478,0.0471,0.0474,0.0462,0.0447,0.0428,0.043,0.0401,0.04,0.0391,0.0391,0.033,0.0374,0.0374,0.0374,0.0374,0.0374,0.0374,0.0497,0.0493,0.0511,0.0503,0.0509,0.0485,0.0441,0.0409,0.0415,0.0434,0.0433,0.0348,0.0346,0.0333,0.0374,0.0374,0.0374,0.0374,0.0374,0.052,0.0522,0.0561,0.0574,0.0576,0.0493,0.0441,0.0366,0.0369,0.0377,0.0449,0.0447,0.0431,0.0426,0.0415,0.0475,0.0475,0.0475,0.0475,0.0541,0.0544,0.0614,0.0661,0.0638,0.0519,0.0335,0.0304,0.0378,0.0466,0.0466,0.0473,0.047,0.0454,0.0449,0.0438,0.0503,0.0502,0.0502,0.0565,0.0586,0.0648,0.0695,0.0678,0.0478,0.0253,0.0321,0.0525,0.0497,0.0407,0.0489,0.0501,0.0496,0.0471,0.0463,0.0444,0,0]}],[{"header":{"parameterUnit":"m.s-1","parameterCategory":2,"la1":30.2992,"la2":30.254,"lo1":-89.0895,"lo2":-89.0443,"dy":0.0025,"dx":0.0025,"nx":19,"ny":19,"refTime":"2026-03-17T21:00:00:Z","depth":"4","parameterNumber":2,"parameterNumberName":"U-component_of_CURRENTS"},"data":[0,0,0,-0.0876,-0.0878,-0.0955,-0.0956,-0.099,-0.099,0,0,0,0,0,0,0,0,0,0,0,-0.0852,-0.0853,-0.0876,-0.0878,-0.0955,-0.0956,-0.099,-0.099,0,0,0,0,0,0,0,0,0,0,0,-0.0852,-0.0853,-0.0854,-0.0878,-0.0955,-0.0956,-0.099,-0.0947,0,0,0,0,0,0,0,0,0,0,-0.088,-0.0871,-0.0852,-0.0854,-0.0879,-0.0955,-0.0956,-0.0946,-0.095,-0.0938,0,-0.0958,0,-0.0974,-0.0992,-0.0992,0,0,0,-0.0876,-0.0868,-0.0886,-0.0854,-0.088,-0.0955,-0.092,-0.0949,-0.0953,-0.0943,-0.0959,-0.0961,-0.0974,-0.0992,-0.0992,-0.1029,-0.1029,0,0,-0.0871,-0.0866,-0.0883,-0.0889,-0.0909,-0.0917,-0.0922,-0.0952,-0.0961,-0.0959,-0.0962,-0.0975,-0.0992,-0.0992,-0.1029,-0.1029,0,0,0,-0.0861,-0.0863,-0.0882,-0.0887,-0.0906,-0.092,-0.0925,-0.096,-0.0966,-0.0962,-0.0975,-0.0992,-0.0992,-0.1028,-0.1029,-0.1092,0,0,0,-0.0858,-0.0857,-0.088,-0.0877,-0.0906,-0.0943,-0.0932,-0.0964,-0.0968,-0.0975,-0.0992,-0.0992,-0.1028,-0.1029,-0.1089,-0.111,0,0,0,-0.0847,-0.0856,-0.0867,-0.0877,-0.0911,-0.0943,-0.0952,-0.0965,-0.0975,-0.0992,-0.0992,-0.1028,-0.1029,-0.1087,-0.1106,-0.1153,0,0,0,-0.0834,-0.0853,-0.0867,-0.0889,-0.091,-0.0944,-0.0952,-0.0981,-0.0996,-0.0992,-0.1028,-0.1029,-0.1086,-0.1104,-0.1151,-0.0901,0,0,0,-0.0845,-0.0854,-0.0863,-0.0878,-0.0899,-0.0932,-0.0965,-0.099,-0.1001,-0.1012,-0.1014,-0.109,-0.1106,-0.1153,-0.0943,0,0,0,0,-0.0858,-0.0865,-0.0875,-0.0893,-0.0919,-0.0959,-0.0983,-0.1012,-0.1064,-0.1015,-0.1086,-0.1094,-0.1122,-0.0968,-0.1032,-0.1032,-0.1032,-0.1032,-0.1032,-0.0858,-0.0864,-0.0874,-0.0889,-0.0917,-0.0975,-0.1028,-0.1072,-0.107,-0.1113,-0.1143,-0.1216,-0.1055,-0.1142,-0.1143,-0.1143,-0.1143,-0.1144,-0.1144,-0.0848,-0.0843,-0.0864,-0.0876,-0.092,-0.0959,-0.1075,-0.112,-0.1212,-0.119,-0.1215,-0.1041,-0.115,-0.1149,-0.1148,-0.1147,-0.1146,-0.1146,-0.1146,-0.0828,-0.0824,-0.0838,-0.0848,-0.0908,-0.0985,-0.1079,-0.1227,-0.1271,-0.1315,-0.1153,-0.1261,-0.1259,-0.1335,-0.1336,-0.1336,-0.1336,-0.1337,-0.1337,-0.0794,-0.0806,-0.0796,-0.0831,-0.0846,-0.0945,-0.1126,-0.1167,-0.1276,-0.1192,-0.1338,-0.1281,-0.1274,-0.1269,-0.1342,-0.1341,-0.134,-0.134,-0.1339,-0.0752,-0.0766,-0.0735,-0.0737,-0.0755,-0.0816,-0.1014,-0.1064,-0.1084,-0.1049,-0.1123,-0.1133,-0.1088,-0.1087,-0.1073,-0.1091,-0.1088,-0.1085,0,-0.0717,-0.0723,-0.0665,-0.0634,-0.0604,-0.0732,-0.0679,-0.0747,-0.0891,-0.0881,-0.1058,-0.1142,-0.1147,-0.1093,-0.1087,-0.1068,0,0,0,-0.0676,-0.0661,-0.0596,-0.0563,-0.0524,-0.0557,-0.0659,-0.0653,-0.0891,-0.0821,-0.1011,-0.103,-0.1103,-0.1356,-0.131,-0.1302,-0.1292,0,0]},{"header":{"parameterUnit":"m.s-1","parameterCategory":2,"la1":30.2992,"la2":30.254,"lo1":-89.0895,"lo2":-89.0443,"dy":0.0025,"dx":0.0025,"nx":19,"ny":19,"refTime":"2026-03-17T21:00:00:Z","depth":"4","parameterNumber":3,"parameterNumberName":"V-component_of_CURRENTS"},"data":[0,0,0,0.0377,0.0377,0.0415,0.0415,0.0434,0.0434,0,0,0,0,0,0,0,0,0,0,0,0.0365,0.0366,0.0377,0.0377,0.0415,0.0415,0.0434,0.0434,0,0,0,0,0,0,0,0,0,0,0,0.0365,0.0366,0.0366,0.0378,0.0415,0.0415,0.0434,0.0413,0,0,0,0,0,0,0,0,0,0,0.0381,0.0371,0.0366,0.0366,0.0378,0.0415,0.0415,0.0413,0.0415,0.0408,0,0.0416,0,0.0423,0.0434,0.0434,0,0,0,0.0379,0.037,0.0382,0.0366,0.0378,0.0415,0.0398,0.0414,0.0416,0.041,0.0416,0.0417,0.0424,0.0434,0.0435,0.0417,0.0416,0,0,0.0377,0.0369,0.038,0.0383,0.039,0.0397,0.04,0.0416,0.0417,0.0416,0.0418,0.0424,0.0435,0.0435,0.0417,0.0417,0,0,0,0.037,0.0368,0.038,0.0382,0.039,0.0398,0.0401,0.0416,0.0421,0.0418,0.0424,0.0435,0.0435,0.0417,0.0417,0.0362,0,0,0,0.0369,0.0364,0.0379,0.0375,0.039,0.0407,0.0401,0.042,0.0422,0.0424,0.0435,0.0435,0.0417,0.0417,0.0364,0.0306,0,0,0,0.0363,0.0363,0.0369,0.0374,0.039,0.0407,0.0413,0.0421,0.0425,0.0434,0.0435,0.0418,0.0417,0.0366,0.031,0.0249,0,0,0,0.0352,0.0352,0.0368,0.0366,0.039,0.0386,0.0413,0.0419,0.0425,0.0435,0.0417,0.0417,0.0366,0.0313,0.0253,0.0245,0,0,0,0.0342,0.035,0.0347,0.0363,0.0341,0.0381,0.0343,0.037,0.0413,0.0411,0.0411,0.0363,0.031,0.025,0.0212,0,0,0,0,0.0337,0.0331,0.033,0.0321,0.0329,0.0292,0.0331,0.0342,0.0361,0.0414,0.0367,0.0334,0.0298,0.0304,0.0414,0.0414,0.0414,0.0414,0.0414,0.03,0.0298,0.0268,0.0256,0.0241,0.0235,0.0216,0.0236,0.031,0.0315,0.0294,0.0212,0.0219,0.0318,0.0318,0.0318,0.0317,0.0317,0.0317,0.0255,0.0226,0.0198,0.0171,0.013,0.01,0.0098,0.0141,0.0142,0.0228,0.0197,0.0252,0.0312,0.0313,0.0314,0.0314,0.0315,0.0315,0.0315,0.022,0.0199,0.0187,0.0115,0.0036,0.002,-0.0061,0.0002,0.0073,0.0051,0.0078,0.0154,0.0152,0.0066,0.0065,0.0065,0.0064,0.0064,0.0063,0.0187,0.0167,0.012,0.0051,-0.0019,-0.0089,-0.0125,-0.014,-0.0067,-0.0019,0.0046,0.0126,0.0134,0.0137,0.0055,0.0057,0.0058,0.0059,0.0059,0.0137,0.0145,0.0069,0.0005,-0.0159,-0.0219,-0.0251,-0.0245,-0.0272,-0.0239,-0.0065,-0.0056,-0.005,-0.0038,-0.0041,-0.0179,-0.0179,-0.018,0,0.0106,0.0103,0.0004,-0.0119,-0.0261,-0.0313,-0.0366,-0.0369,-0.0274,-0.0236,-0.0268,-0.0072,-0.0064,-0.0055,-0.0045,-0.0049,0,0,0,0.0061,0.0046,-0.004,-0.0145,-0.0315,-0.0363,-0.0379,-0.0358,-0.0268,-0.0296,-0.0192,-0.0188,-0.0109,0.0031,0.006,0.007,0.0074,0,0]}]]